Time,TemperatureF,DewpointF,PressureIn,WindDirection,WindDirectionDegrees,WindSpeedMPH,WindSpeedGustMPH,Humidity,HourlyPrecipIn,Conditions,Clouds,dailyrainin,SoftwareType,DateUTC
2013-07-09 00:00:00,65.7,63.9,30.01,East,90,0.0,-999.0,94,-99.99,,,0.00,Acu-Link.com,2013-07-09 04:00:00,
2013-07-09 00:15:00,65.7,63.9,30.01,NNE,22,0.0,-999.0,94,-99.99,,,0.00,Acu-Link.com,2013-07-09 04:15:00,
2013-07-09 00:30:00,65.3,63.5,30.01,ENE,67,1.7,-999.0,94,-99.99,,,0.00,Acu-Link.com,2013-07-09 04:30:00,
2013-07-09 00:45:00,65.1,63.6,30.02,East,90,0.0,-999.0,95,-99.99,,,0.00,Acu-Link.com,2013-07-09 04:45:00,
2013-07-09 01:00:00,64.8,63.3,30.02,WNW,292,0.0,-999.0,95,-99.99,,,0.00,Acu-Link.com,2013-07-09 05:00:00,
2013-07-09 01:15:00,64.8,63.3,30.02,East,90,3.7,-999.0,95,-99.99,,,0.00,Acu-Link.com,2013-07-09 05:15:00,
2013-07-09 01:31:00,64.4,62.9,30.02,NE,45,1.7,-999.0,95,-99.99,,,0.00,Acu-Link.com,2013-07-09 05:31:00,
2013-07-09 01:46:00,64.0,62.8,30.02,East,90,1.1,-999.0,96,-99.99,,,0.00,Acu-Link.com,2013-07-09 05:46:00,
2013-07-09 02:01:00,63.9,62.7,30.02,NNW,337,0.0,-999.0,96,-99.99,,,0.00,Acu-Link.com,2013-07-09 06:01:00,
2013-07-09 02:16:00,63.5,62.6,30.02,ESE,112,3.7,-999.0,97,-99.99,,,0.00,Acu-Link.com,2013-07-09 06:16:00,
2013-07-09 02:31:00,63.7,62.8,30.03,ESE,112,2.2,-999.0,97,-99.99,,,0.00,Acu-Link.com,2013-07-09 06:31:00,
2013-07-09 02:47:00,63.9,63.0,30.02,East,90,3.2,-999.0,97,-99.99,,,0.00,Acu-Link.com,2013-07-09 06:47:00,
2013-07-09 03:02:00,64.0,63.1,30.02,NE,45,2.7,-999.0,97,-99.99,,,0.00,Acu-Link.com,2013-07-09 07:02:00,
2013-07-09 03:17:00,64.4,63.5,30.02,West,270,0.0,-999.0,97,-99.99,,,0.00,Acu-Link.com,2013-07-09 07:17:00,
2013-07-09 03:32:00,64.6,63.7,30.01,ENE,67,2.2,-999.0,97,-99.99,,,0.00,Acu-Link.com,2013-07-09 07:32:00,
2013-07-09 03:47:00,64.6,63.7,30.02,ESE,112,1.7,-999.0,97,-99.99,,,0.00,Acu-Link.com,2013-07-09 07:47:00,
2013-07-09 04:03:00,64.6,63.7,30.02,NE,45,1.7,-999.0,97,-99.99,,,0.00,Acu-Link.com,2013-07-09 08:03:00,
2013-07-09 04:18:00,64.6,63.7,30.01,ESE,112,2.2,-999.0,97,-99.99,,,0.00,Acu-Link.com,2013-07-09 08:18:00,
2013-07-09 04:34:00,64.6,63.7,30.02,ESE,112,3.7,-999.0,97,-99.99,,,0.00,Acu-Link.com,2013-07-09 08:34:00,
2013-07-09 04:49:00,64.6,63.7,30.02,SSE,157,0.0,-999.0,97,-99.99,,,0.00,Acu-Link.com,2013-07-09 08:49:00,
2013-07-09 05:04:00,64.6,63.7,30.01,NE,45,2.2,-999.0,97,-99.99,,,0.00,Acu-Link.com,2013-07-09 09:04:00,
2013-07-09 05:19:00,64.6,63.7,30.03,ESE,112,2.2,-999.0,97,-99.99,,,0.00,Acu-Link.com,2013-07-09 09:19:00,
2013-07-09 05:34:00,64.6,63.7,30.03,ESE,112,3.7,-999.0,97,-99.99,,,0.00,Acu-Link.com,2013-07-09 09:34:00,
2013-07-09 05:49:00,64.8,63.9,30.02,ESE,112,4.2,-999.0,97,-99.99,,,0.00,Acu-Link.com,2013-07-09 09:49:00,
2013-07-09 06:05:00,64.9,63.7,30.04,ESE,112,2.7,-999.0,96,-99.99,,,0.00,Acu-Link.com,2013-07-09 10:05:00,
2013-07-09 06:20:00,65.3,64.1,30.02,East,90,2.2,-999.0,96,-99.99,,,0.00,Acu-Link.com,2013-07-09 10:20:00,
2013-07-09 06:35:00,65.3,64.1,30.05,ESE,112,1.7,-999.0,96,-99.99,,,0.00,Acu-Link.com,2013-07-09 10:35:00,
2013-07-09 06:50:00,65.8,64.3,30.04,NE,45,0.0,-999.0,95,-99.99,,,0.00,Acu-Link.com,2013-07-09 10:50:00,
2013-07-09 07:06:00,66.0,64.2,30.05,East,90,2.2,-999.0,94,-99.99,,,0.00,Acu-Link.com,2013-07-09 11:06:00,
2013-07-09 07:21:00,66.2,64.4,30.05,ESE,112,0.0,-999.0,94,-99.99,,,0.00,Acu-Link.com,2013-07-09 11:21:00,
2013-07-09 07:36:00,66.6,64.5,30.06,ESE,112,1.7,-999.0,93,-99.99,,,0.00,Acu-Link.com,2013-07-09 11:36:00,
2013-07-09 07:51:00,67.5,65.1,30.05,ESE,112,3.7,-999.0,92,-99.99,,,0.00,Acu-Link.com,2013-07-09 11:51:00,
2013-07-09 08:06:00,68.2,65.1,30.06,SE,135,2.2,-999.0,90,-99.99,,,0.00,Acu-Link.com,2013-07-09 12:06:00,
2013-07-09 08:22:00,68.4,65.0,30.05,ESE,112,1.7,-999.0,89,-99.99,,,0.00,Acu-Link.com,2013-07-09 12:22:00,
2013-07-09 08:37:00,68.4,65.3,30.06,East,90,1.1,-999.0,90,-99.99,,,0.00,Acu-Link.com,2013-07-09 12:37:00,
2013-07-09 08:52:00,69.1,65.7,30.04,WNW,292,2.2,-999.0,89,-99.99,,,0.00,Acu-Link.com,2013-07-09 12:52:00,
2013-07-09 09:07:00,71.2,66.8,30.04,SSW,202,3.2,-999.0,86,-99.99,,,0.00,Acu-Link.com,2013-07-09 13:07:00,
2013-07-09 09:22:00,70.2,65.8,30.05,ENE,67,2.7,-999.0,86,-99.99,,,0.00,Acu-Link.com,2013-07-09 13:22:00,
2013-07-09 09:38:00,70.2,66.1,30.04,ESE,112,4.2,-999.0,87,-99.99,,,0.00,Acu-Link.com,2013-07-09 13:38:00,
2013-07-09 09:53:00,69.8,65.7,30.04,ESE,112,5.3,-999.0,87,-99.99,,,0.00,Acu-Link.com,2013-07-09 13:53:00,
2013-07-09 10:08:00,70.2,65.8,30.04,South,180,3.7,-999.0,86,-99.99,,,0.00,Acu-Link.com,2013-07-09 14:08:00,
2013-07-09 10:23:00,70.3,66.2,30.04,ESE,112,1.7,-999.0,87,-99.99,,,0.00,Acu-Link.com,2013-07-09 14:23:00,
2013-07-09 10:38:00,70.7,66.3,30.04,East,90,1.7,-999.0,86,-99.99,,,0.00,Acu-Link.com,2013-07-09 14:38:00,
2013-07-09 10:54:00,71.6,66.8,30.05,NE,45,4.2,-999.0,85,-99.99,,,0.00,Acu-Link.com,2013-07-09 14:54:00,
2013-07-09 11:09:00,70.9,66.5,30.03,ENE,67,3.7,-999.0,86,-99.99,,,0.00,Acu-Link.com,2013-07-09 15:09:00,
2013-07-09 11:24:00,73.6,68.1,30.04,WSW,247,2.7,-999.0,83,-99.99,,,0.00,Acu-Link.com,2013-07-09 15:24:00,
2013-07-09 11:39:00,74.7,67.7,30.03,SW,225,0.0,-999.0,79,-99.99,,,0.00,Acu-Link.com,2013-07-09 15:39:00,
2013-07-09 11:54:00,73.6,67.4,30.02,South,180,4.2,-999.0,81,-99.99,,,0.00,Acu-Link.com,2013-07-09 15:54:00,
2013-07-09 12:10:00,74.8,67.5,30.03,SW,225,2.2,-999.0,78,-99.99,,,0.00,Acu-Link.com,2013-07-09 16:10:00,
2013-07-09 12:25:00,76.6,69.2,30.02,West,270,1.7,-999.0,78,-99.99,,,0.00,Acu-Link.com,2013-07-09 16:25:00,
2013-07-09 14:13:00,76.6,68.8,30.00,ESE,112,3.7,-999.0,77,-99.99,,,0.00,Acu-Link.com,2013-07-09 18:13:00,
2013-07-09 14:28:00,76.3,68.2,29.99,SE,135,3.2,-999.0,76,-99.99,,,0.00,Acu-Link.com,2013-07-09 18:28:00,
2013-07-09 14:44:00,78.1,69.5,29.99,SSE,157,1.7,-999.0,75,-99.99,,,0.00,Acu-Link.com,2013-07-09 18:44:00,
2013-07-09 14:59:00,79.0,69.2,29.99,WSW,247,3.2,-999.0,72,-99.99,,,0.00,Acu-Link.com,2013-07-09 18:59:00,
2013-07-09 15:14:00,77.5,68.5,29.98,SE,135,3.7,-999.0,74,-99.99,,,0.00,Acu-Link.com,2013-07-09 19:14:00,
2013-07-09 15:30:00,73.8,67.9,29.99,NE,45,2.2,-999.0,82,-99.99,,,0.00,Acu-Link.com,2013-07-09 19:30:00,
2013-07-09 15:45:00,75.7,68.0,29.98,ESE,112,4.7,-999.0,77,-99.99,,,0.00,Acu-Link.com,2013-07-09 19:45:00,
2013-07-09 16:01:00,77.5,69.3,29.98,NW,315,1.7,-999.0,76,-99.99,,,0.00,Acu-Link.com,2013-07-09 20:01:00,
2013-07-09 16:16:00,82.9,71.2,29.98,NNE,22,1.7,-999.0,68,-99.99,,,0.00,Acu-Link.com,2013-07-09 20:16:00,
2013-07-09 16:31:00,81.9,70.3,29.97,NNE,22,2.7,-999.0,68,-99.99,,,0.00,Acu-Link.com,2013-07-09 20:31:00,
2013-07-09 16:47:00,81.3,69.7,29.98,ESE,112,4.2,-999.0,68,-99.99,,,0.00,Acu-Link.com,2013-07-09 20:47:00,
2013-07-09 17:02:00,79.7,69.0,29.98,ESE,112,4.2,-999.0,70,-99.99,,,0.00,Acu-Link.com,2013-07-09 21:02:00,
2013-07-09 17:17:00,77.4,68.0,29.97,West,270,3.2,-999.0,73,-99.99,,,0.00,Acu-Link.com,2013-07-09 21:17:00,
2013-07-09 17:32:00,75.0,66.9,29.97,ENE,67,3.7,-999.0,76,-99.99,,,0.00,Acu-Link.com,2013-07-09 21:32:00,
2013-07-09 17:47:00,75.6,67.5,29.97,ESE,112,3.2,-999.0,76,-99.99,,,0.00,Acu-Link.com,2013-07-09 21:47:00,
2013-07-09 18:03:00,75.9,67.0,29.95,ENE,67,3.7,-999.0,74,-99.99,,,0.00,Acu-Link.com,2013-07-09 22:03:00,
2013-07-09 18:18:00,74.3,65.8,29.97,ESE,112,4.7,-999.0,75,-99.99,,,0.00,Acu-Link.com,2013-07-09 22:18:00,
2013-07-09 18:33:00,72.3,65.4,29.98,ESE,112,3.7,-999.0,79,-99.99,,,0.00,Acu-Link.com,2013-07-09 22:33:00,
2013-07-09 18:48:00,73.8,66.1,29.96,NNE,22,1.1,-999.0,77,-99.99,,,0.00,Acu-Link.com,2013-07-09 22:48:00,
2013-07-09 19:03:00,72.9,65.6,29.96,ENE,67,2.2,-999.0,78,-99.99,,,0.00,Acu-Link.com,2013-07-09 23:03:00,
2013-07-09 19:19:00,70.5,64.0,29.97,SSE,157,7.8,-999.0,80,-99.99,,,0.00,Acu-Link.com,2013-07-09 23:19:00,
2013-07-09 19:34:00,69.8,64.0,29.98,East,90,4.7,-999.0,82,-99.99,,,0.00,Acu-Link.com,2013-07-09 23:34:00,
2013-07-09 19:49:00,69.8,64.0,29.99,East,90,3.7,-999.0,82,-99.99,,,0.00,Acu-Link.com,2013-07-09 23:49:00,
2013-07-09 20:04:00,68.9,63.9,29.99,East,90,4.2,-999.0,84,-99.99,,,0.00,Acu-Link.com,2013-07-10 00:04:00,
2013-07-09 20:19:00,68.5,63.5,30.00,SE,135,6.3,-999.0,84,-99.99,,,0.00,Acu-Link.com,2013-07-10 00:19:00,
2013-07-09 20:35:00,68.4,63.4,29.99,East,90,5.3,-999.0,84,-99.99,,,0.00,Acu-Link.com,2013-07-10 00:35:00,
2013-07-09 20:50:00,68.2,63.5,30.00,SSW,202,2.7,-999.0,85,-99.99,,,0.00,Acu-Link.com,2013-07-10 00:50:00,
2013-07-09 21:05:00,68.2,63.5,30.01,NNW,337,1.7,-999.0,85,-99.99,,,0.00,Acu-Link.com,2013-07-10 01:05:00,
2013-07-09 21:20:00,67.8,63.5,30.01,SW,225,2.2,-999.0,86,-99.99,,,0.00,Acu-Link.com,2013-07-10 01:20:00,
2013-07-09 21:35:00,67.8,63.5,30.01,SSW,202,2.2,-999.0,86,-99.99,,,0.00,Acu-Link.com,2013-07-10 01:35:00,
2013-07-09 21:51:00,67.3,63.3,30.01,NW,315,2.2,-999.0,87,-99.99,,,0.00,Acu-Link.com,2013-07-10 01:51:00,
2013-07-09 22:06:00,66.6,63.6,30.01,SE,135,4.2,-999.0,90,-99.99,,,0.00,Acu-Link.com,2013-07-10 02:06:00,
2013-07-09 22:21:00,66.2,64.1,30.00,ESE,112,1.7,-999.0,93,-99.99,,,0.00,Acu-Link.com,2013-07-10 02:21:00,
2013-07-09 22:37:00,65.8,64.3,30.01,ESE,112,4.2,-999.0,95,-99.99,,,0.00,Acu-Link.com,2013-07-10 02:37:00,
2013-07-09 22:52:00,65.7,64.2,30.01,East,90,2.2,-999.0,95,-99.99,,,0.00,Acu-Link.com,2013-07-10 02:52:00,
2013-07-09 23:07:00,65.7,64.2,30.00,ESE,112,4.7,-999.0,95,-99.99,,,0.00,Acu-Link.com,2013-07-10 03:07:00,
2013-07-09 23:22:00,65.8,64.3,30.00,NNW,337,0.0,-999.0,95,-99.99,,,0.00,Acu-Link.com,2013-07-10 03:22:00,
2013-07-09 23:37:00,65.3,63.8,30.01,ESE,112,4.2,-999.0,95,-99.99,,,0.00,Acu-Link.com,2013-07-10 03:37:00,
2013-07-09 23:53:00,65.1,63.6,30.00,SE,135,0.0,-999.0,95,-99.99,,,0.00,Acu-Link.com,2013-07-10 03:53:00,